Other Surface Observations
Issued by NWS

Home | Current Version | Previous Version | Text Only | Print | Product List | Glossary On
Versions: 1 2 3 4 5 6 7 8 9 10 11 12 13 14 15 16 17 18 19 20 21 22 23 24 25 26 27 28 29 30 31 32 33 34 35 36 37 38 39 40 41 42 43 44 45 46 47 48 49 50
000
SXUS52 KTAE 241218
OSOTAE
OSOTAE
North Florida/South Alabama/Southwest Georgia Weather Roundup
National Weather Service Tallahassee Florida
700 AM EST MON NOV 24 2014

Note: "fair" indicates few or no clouds below 12,000 feet with no
significant weather and/or obstructions to visibility.

!FLZ017-115-028-034-025-241300
...North Florida...

CITY           SKY/WX    TMP DP  RH WIND       PRES   REMARKS
TALLAHASSEE    CLOUDY    75  71  87 S12       29.84R
APALACHICOLA   CLOUDY    72  69  90 S13       29.84R FOG
PERRY          CLOUDY    71  71  99 S14G22    29.88R FOG
CROSS CITY       N/A     72  70  93 S10       29.90R
JACKSONVILLE   PTCLDY    71  71 100 S9        29.90R
$$

!FLZ112-006-005-002-011-241300
...Florida Panhandle...

CITY           SKY/WX    TMP DP  RH WIND       PRES   REMARKS
MARIANNA       CLOUDY    68  68 100 SW3       29.81R
BONIFAY        LGT RAIN  68  68 100 MISG      29.82R FOG
PANAMA CITY NW HVY RAIN  70  68  94 S5        29.82R FOG
TYNDALL AFB    MOCLDY    72  72 100 SW10      29.83R THUNDER FOG
TYND DRONE APT PTSUNNY   72  72 100 MISG      29.81R FOG
DE FUNIAK SPR  CLOUDY    66  66 100 CALM      29.82R FOG
EGLIN AFB      MOCLDY    70  69  96 SW5       29.82R
DESTIN         LGT RAIN N/A N/A N/A SW5       29.82R
HURLBURT       MOCLDY    70  66  88 SW5       29.80R
CRESTVIEW      CLOUDY    70  68  93 SW7       29.81R
PENSACOLA      CLOUDY    68  68 100 W7        29.80R
$$

!ALZ063-066-241300
...South Alabama...

CITY           SKY/WX    TMP DP  RH WIND       PRES   REMARKS
DOTHAN         CLOUDY    64  63  96 S5        29.83S FOG
OZARK CAIRNS   FOG       64  63  94 CALM      29.81R VSB 1/4
FT RUCKER HELI FOG       65  64  97 CALM      29.79R VSB 3/4
RUCKER HELI 3  MOCLDY    64  64 100 W3        29.82S FOG
RUCKER HELI 2  FOG       64  64 100 CALM      29.80R VSB 3/4
FLORALA APT    CLOUDY    67  66  97 CALM      29.82R FOG
ANDALUSIA      CLOUDY    72  66  83 SW5       29.81R
TROY           CLOUDY    66  64  93 SW6       29.81R
EUFALA         CLOUDY    66  64  93 CALM      29.80R FOG
MOBILE         CLOUDY    68  67  96 W12       29.80R
$$

!GAZ120>161-241300
...Southwest and South Central Georgia...

CITY           SKY/WX    TMP DP  RH WIND       PRES   REMARKS
THOMASVILLE    CLOUDY    73  73 100 SW15G22   29.84R
BAINBRIDGE     HVY RAIN  72  70  94 SW6       29.83R
MOODY AFB      CLOUDY    72  70  94 S13G21    29.85R
VALDOSTA       CLOUDY    73  71  93 S10G18    29.85R
MOULTRIE       CLOUDY    72 N/A N/A S8        29.83R
BLAKELY        CLOUDY    64  64 100 CALM      29.81R FOG
ALBANY         CLOUDY    68  66  94 SW7       29.83R FOG
TIFTON         CLOUDY    70  70 100 S9        29.82R
FITZGERALD     CLOUDY    70  67  91 S3        29.84S FOG
CORDELE        RAIN      68  66  94 CALM      29.82R
AMERICUS       CLOUDY    64  64 100 SW3       29.82S FOG
HOMERVILLE     CLOUDY    73  72  94 S7        29.86F
$$

!GMZ750-755-770-775-241300
...Coastal and Buoy Obs...

STATION/POSITION TIME  TEMP    WIND        PRES    VSBY  WAVE
                       AIR SEA DIR/SP/G                  HT/PER
                 (UTC) (F)     (DEG/KT/KT) (MB)    (MI)  (FT/S)
KEATON BEACH     1200   65     170/ 13/ 14 1012.2R
CEDAR KEY        1154   63     180/ 12/ 13 1013.7R
C TOWER          1200   72     190/ 17/ 18 1010.6R
APALACHICOLA BUO 1200   74 72  190/ 10/ 12 1012.1R         6/ 8
PANAMA CITY BUOY 1123   77 76  190/ 16/ 17 1010.3R         5/ 7
MOBILE BUOY      1120   73 72  250/ 14/ 16 1010.2R         6/ 7
ORANGE BCH AL BU 1200   71 69  210/ 10/ 12 1008.6R         5/ 8
$$



USA.gov is the U.S. government's official web portal to all federal, state and local government web resources and services.